Back to catalog

SL-12 R/B

AUX MOTOR

AliveHEO
NORAD 7400·ROCKET BODY·🇷🇺 Russia

Launched Jul 29, 1974 from Baikonur Cosmodrome

Loading…

Next Passes (next 24 hours)

TLE

FreshSource: Space-Track

Epoch: Sep 14, 2026, 12:52 UTC

1 07400U 74060E   26257.53635769 -.00000091  00000-0  00000-0 0  9995
2 07400  44.8389 113.7560 6403148  60.2357 348.3199  2.54706108113433

Track SL-12 R/B in real time with AllMySat

Download on the App Store